Weather History for Westminster, MD

Change the Weather History Date:

Wednesday, February 5, 2014

  Actual Average (KTHV) Record (KTHV)
Temperature  
Mean Temperature 32 °F -  
Max Temperature 37 °F 0 °F 52 °F (2008)
Min Temperature 26 °F - 5 °F (2007)
Degree Days  
Heating Degree Days 34    
Moisture  
Dew Point 29 °F    
Average Humidity 88    
Maximum Humidity 100    
Minimum Humidity 69    
Precipitation  
Precipitation 0.58 in - - ()
Sea Level Pressure  
Sea Level Pressure 29.88 in    
Wind  
Wind Speed 4 mph (NNW)    
Max Wind Speed 21 mph    
Max Gust Speed 31 mph    
Visibility 4 miles    
Events Fog , Snow    
Averages and records for this station are not official NWS values.
T = Trace of Precipitation, MM = Missing Value Source: NWS Daily Summary

Daily Weather History Graph

Daily Weather History Graph

Search for Another Location

Airport:

Trip Planner

Search our weather history database for the weather conditions in past years. The results will help you decide how hot, cold, wet, or windy it might be!

Date:

Astronomy

Feb. 05, 2014 Rise Set
Actual Time 7:11 AM EST 5:32 PM EST
Civil Twilight 6:43 AM EST 6:00 PM EST
Nautical Twilight 6:11 AM EST 6:32 PM EST
Astronomical Twilight 5:40 AM EST 7:04 PM EST
Moon 10:26 AM EST (2/5) No Moon Set
Length of Visible Light 11h 17m
Length of Day
10h 21m
Waxing Crescent, 39% of the Moon is Illuminated
Feb 5
Waxing Crescent
Feb 6
First Quarter
Feb 14
Full
Feb 22
Last Quarter
Mar 1
New

Hourly Weather History & Observations

Time (EST) Temp. Windchill Dew Point Humidity Pressure Visibility Wind Dir Wind Speed Gust Speed Precip Events Conditions
12:15 AM 26.6 °F 21.2 °F 24.8 °F 93% 30.15 in 1.8 mi North 4.6 mph - 0.01 in Snow Heavy Snow
12:35 AM 28.4 °F 23.3 °F 26.6 °F 93% 30.15 in 1.5 mi North 4.6 mph - 0.03 in Snow Light Snow
12:55 AM 28.4 °F 22.2 °F 26.6 °F 93% 30.12 in 1.8 mi ENE 5.8 mph - 0.01 in Snow Light Snow
1:15 AM 28.4 °F 23.3 °F 26.6 °F 93% 30.11 in 2.0 mi ENE 4.6 mph - 0.04 in Snow Light Snow
1:35 AM 28.4 °F 24.6 °F 26.6 °F 93% 30.12 in 1.8 mi ENE 3.5 mph - 0.09 in Snow Light Snow
1:55 AM 28.4 °F 22.2 °F 26.6 °F 93% 30.06 in 1.8 mi ENE 5.8 mph - 0.03 in Snow Light Snow
2:15 AM 30.2 °F 26.7 °F 28.4 °F 93% 30.05 in 1.5 mi ENE 3.5 mph - 0.08 in Snow Light Snow
2:35 AM 30.2 °F - 28.4 °F 93% 30.07 in 2.0 mi Calm Calm - 0.12 in Snow Light Snow
2:55 AM 30.2 °F - 28.4 °F 93% 30.05 in 1.8 mi Calm Calm - 0.02 in Snow Light Snow
3:15 AM 30.2 °F 26.7 °F 28.4 °F 93% 30.02 in 2.5 mi ENE 3.5 mph - 0.05 in Snow Light Snow
3:35 AM 30.2 °F 26.7 °F 28.4 °F 93% 30.01 in 2.0 mi NE 3.5 mph - 0.08 in Snow Light Snow
3:55 AM 30.2 °F - 28.4 °F 93% 29.99 in 4.0 mi Calm Calm - 0.01 in   Overcast
4:15 AM 30.2 °F 26.7 °F 28.4 °F 93% 29.99 in 3.0 mi North 3.5 mph - 0.01 in   Overcast
4:35 AM 30.2 °F 26.7 °F 28.4 °F 93% 30.00 in 1.5 mi North 3.5 mph - 0.02 in Snow Snow
4:55 AM 30.2 °F 26.7 °F 28.4 °F 93% 2.99 in 2.0 mi NNE 3.5 mph - N/A   Overcast
5:15 AM 30.2 °F - 28.4 °F 93% 30.01 in 1.8 mi Calm Calm - 0.03 in Snow Light Snow
5:35 AM 30.2 °F 26.7 °F 28.4 °F 93% - 1.8 mi ESE 3.5 mph - 0.08 in Snow Light Snow
5:55 AM 30.2 °F - 28.4 °F 93% 2.99 in 2.5 mi Calm Calm - 0.01 in Snow Light Snow
6:15 AM 32.0 °F - 30.2 °F 93% 29.91 in 2.0 mi Calm Calm - 0.04 in Snow Light Snow
6:35 AM 32.0 °F - 30.2 °F 93% 29.88 in 2.0 mi Calm Calm - 0.08 in Snow Light Snow
6:55 AM 32.0 °F - 30.2 °F 93% 29.89 in 1.5 mi Calm Calm - 0.01 in Snow Light Snow
7:10 AM 32.0 °F - 30.2 °F 93% 29.86 in 1.8 mi Calm Calm - 0.04 in Snow Light Snow
8:10 AM 33.8 °F - 30.2 °F 87% 29.79 in 3.0 mi Calm Calm - N/A   Overcast
8:35 AM 33.8 °F - 30.2 °F 87% 29.81 in 10.0 mi Calm Calm - N/A   Overcast
8:55 AM 33.8 °F - 30.2 °F 87% 29.79 in 1.8 mi Calm Calm - N/A Snow Light Snow
9:05 AM 33.8 °F - 30.2 °F 87% 29.77 in 1.0 mi Calm Calm - N/A Snow Light Snow
9:30 AM 33.8 °F - 30.2 °F 87% 29.76 in 7.0 mi Calm Calm - 0.01 in   Overcast
9:55 AM 33.8 °F - 30.2 °F 87% 29.75 in 0.5 mi Calm Calm - 0.01 in Snow Light Snow
10:20 AM 33.8 °F - 30.2 °F 87% - 2.0 mi Calm Calm - 0.01 in   Heavy Drizzle
10:30 AM 33.8 °F - 32.0 °F 93% 29.74 in 1.5 mi Calm Calm - 0.01 in   Overcast
11:20 AM 33.8 °F - 30.2 °F 87% 29.73 in 7.0 mi Calm Calm - N/A   Overcast
11:40 AM 32.0 °F - 32.0 °F 100% 29.72 in 1.8 mi Calm Calm - N/A   Overcast
12:00 PM 33.8 °F - 30.2 °F 87% - 3.0 mi Calm Calm - N/A   Overcast
12:20 PM 32.0 °F - 30.2 °F 93% 29.71 in 0.2 mi Calm Calm - N/A Fog Fog
12:40 PM 32.0 °F - 30.2 °F 93% - 0.2 mi Calm Calm - N/A Fog Fog
1:00 PM 32.0 °F - 30.2 °F 93% 29.68 in 0.2 mi Calm Calm - N/A Fog Fog
1:20 PM 32.0 °F - 30.2 °F 93% 29.68 in 0.2 mi Calm Calm - N/A Fog Fog
1:40 PM 32.0 °F - 32.0 °F 100% 29.67 in 0.2 mi Calm Calm - N/A Fog Fog
2:00 PM 32.0 °F - 30.2 °F 93% 29.67 in 0.2 mi Calm Calm - N/A Fog Fog
2:20 PM 32.0 °F - 30.2 °F 93% 29.67 in 1.5 mi Calm Calm - N/A   Overcast
2:40 PM 33.8 °F - 30.2 °F 87% 29.67 in 2.5 mi Calm Calm - N/A   Overcast
3:00 PM - - - N/A% 29.69 in 3.0 mi Calm Calm - N/A   Overcast
3:20 PM 33.8 °F - 32.0 °F 93% 29.69 in 4.0 mi Calm Calm - N/A   Overcast
3:40 PM 33.8 °F - 32.0 °F 93% 29.69 in 4.0 mi Calm Calm - N/A   Overcast
4:00 PM - - - N/A% 29.70 in 3.0 mi Calm Calm - N/A   Overcast
4:20 PM 33.8 °F - 32.0 °F 93% 29.71 in 1.8 mi Calm Calm - N/A   Overcast
4:40 PM 33.8 °F - 32.0 °F 93% 29.72 in 1.5 mi Calm Calm - N/A   Overcast
5:00 PM - - - N/A% 29.73 in 1.2 mi Calm Calm - N/A   Overcast
5:20 PM 33.8 °F - 32.0 °F 93% 29.75 in 1.2 mi Calm Calm - N/A   Overcast
5:40 PM 33.8 °F - 32.0 °F 93% 29.77 in 1.8 mi Calm Calm - N/A   Overcast
6:00 PM 33.8 °F - 33.8 °F 100% 29.78 in 7.0 mi Calm Calm - N/A   Overcast
6:20 PM 35.6 °F 26.6 °F 33.8 °F 93% 29.79 in 10.0 mi West 13.8 mph - N/A   Overcast
6:40 PM 37.4 °F 28.9 °F 33.8 °F 87% 29.81 in 10.0 mi West 13.8 mph 23.0 mph 0.01 in   Overcast
7:00 PM 37.4 °F 28.2 °F 33.8 °F 87% 29.83 in 10.0 mi WNW 16.1 mph 27.6 mph 0.01 in   Overcast
7:20 PM 37.4 °F 28.5 °F 32.0 °F 81% 29.85 in 10.0 mi WNW 15.0 mph 20.7 mph 0.02 in   Overcast
7:40 PM 35.6 °F 26.6 °F 30.2 °F 81% 29.86 in 10.0 mi WNW 13.8 mph 26.5 mph 0.02 in   Overcast
8:00 PM 35.6 °F 26.2 °F 28.4 °F 75% 29.88 in 10.0 mi WNW 15.0 mph 24.2 mph N/A   Overcast
8:20 PM 33.8 °F 23.9 °F 26.6 °F 75% 29.91 in 10.0 mi WNW 15.0 mph 24.2 mph N/A   Overcast
8:40 PM 33.8 °F 23.5 °F 26.6 °F 75% 29.93 in - WNW 16.1 mph 21.9 mph N/A   Overcast
9:00 PM 33.8 °F 23.5 °F 26.6 °F 75% 29.95 in 10.0 mi WNW 16.1 mph 26.5 mph N/A   Overcast
9:20 PM 32.0 °F 20.5 °F 24.8 °F 75% 29.98 in 10.0 mi NW 18.4 mph 29.9 mph N/A   Overcast
9:40 PM 30.2 °F 17.4 °F 23.0 °F 75% 29.99 in 10.0 mi NW 20.7 mph 31.1 mph N/A   Overcast
10:00 PM 30.2 °F 18.5 °F 21.2 °F 69% 30.01 in 10.0 mi WNW 17.3 mph 27.6 mph 0.01 in   Overcast
10:20 PM 30.2 °F 20.2 °F 21.2 °F 69% 30.03 in 10.0 mi WNW 12.7 mph 21.9 mph 0.01 in   Overcast
10:40 PM 30.2 °F 19.8 °F 21.2 °F 69% 30.04 in 10.0 mi NW 13.8 mph 21.9 mph 0.01 in   Overcast
11:00 PM 30.2 °F 20.2 °F 21.2 °F 69% 30.06 in 10.0 mi WNW 12.7 mph 20.7 mph N/A   Overcast
11:20 PM 30.2 °F 19.8 °F 23.0 °F 75% 30.06 in 10.0 mi NW 13.8 mph 19.6 mph N/A   Overcast
11:40 PM 28.4 °F 18.0 °F 21.2 °F 74% 30.08 in 10.0 mi NW 12.7 mph 19.6 mph N/A   Overcast